Theta_e
319 318 317 318 318 318 317 317 313 307 308 311 312 317 318 317 315 314 316 308 305 305 306 307 310 312 312 314 315 315 316 316 315 315 315 315 314 314
318 317 317 318 318 317 316 316 315 311 308 312 312 315 318 318 315 316 313 307 303 303 302 303 305 308 309 309 310 310 311 312 312 312 312 313 312 312
316 316 316 318 317 317 316 315 313 312 309 311 314 315 313 314 311 310 309 306 303 301 301 301 302 304 306 305 305 306 307 308 310 310 308 308 307 305
315 315 315 316 316 316 315 314 314 313 310 309 311 312 312 314 311 308 306 305 302 302 301 300 300 300 299 299 299 298 298 298 298 299 299 298 297 296
316 315 315 315 315 315 314 313 314 313 311 309 309 310 311 311 302 300 297 298 298 297 296 296 296 296 296 295 294 293 292 291 290 290 289 289 289 289
316 316 316 316 315 315 314 313 313 312 311 309 308 308 309 310 307 299 296 295 293 294 294 294 294 294 293 292 292 291 290 289 288 287 285 285 285 285
315 315 316 314 308 311 314 313 313 312 310 309 306 306 306 307 306 304 297 291 290 291 290 291 291 290 290 290 290 289 288 287 286 285 284 284 283 283
313 314 314 306 305 300 301 302 309 312 310 309 308 306 305 307 306 304 292 290 289 290 287 285 287 285 285 286 287 286 286 285 285 284 283 283 282 282
311 311 309 310 306 307 292 292 291 292 296 311 309 308 304 305 305 301 295 292 291 288 286 282 284 283 285 286 286 285 284 284 283 283 282 282 281 282
310 310 309 306 303 298 292 288 287 287 289 292 300 290 291 294 301 299 293 284 284 284 285 280 282 282 283 285 286 285 283 283 282 282 281 281 281 282
301 297 308 306 293 294 290 285 284 284 287 288 287 287 287 288 289 290 286 287 281 281 282 281 281 280 282 282 284 285 282 282 282 283 282 282 282 282
288 289 288 299 290 290 291 288 284 281 281 281 281 281 282 283 283 286 289 287 281 279 281 280 280 280 277 281 282 282 282 283 283 283 284 282 282 278
285 285 286 289 290 290 290 289 285 281 280 280 279 279 279 279 279 281 282 285 282 279 281 281 279 279 279 278 280 280 280 281 281 279 282 282 282 280
283 284 285 287 286 286 284 283 282 281 280 279 278 276 276 276 277 278 279 280 281 281 282 282 279 279 277 276 275 279 278 277 276 276 276 279 280 281
283 284 284 284 283 283 283 282 281 280 279 277 275 275 276 276 277 277 278 278 278 279 279 280 280 279 276 274 272 273 273 275 276 275 275 275 276 276
280 280 280 280 279 279 279 279 279 279 278 276 276 276 277 277 275 276 275 275 275 274 277 278 277 277 274 274 274 272 273 270 273 274 275 276 277 277
281 280 279 279 278 278 278 278 278 278 277 277 276 276 276 275 275 276 275 274 273 272 272 275 276 277 276 275 272 272 272 272 271 273 274 273 275 276
279 277 277 277 276 276 276 276 277 277 277 277 276 276 275 275 274 274 274 273 272 272 271 272 272 273 274 275 277 272 270 269 271 274 274 270 272 275
276 275 275 275 275 276 275 275 274 275 276 276 275 274 274 274 274 273 272 272 271 270 270 270 270 268 266 264 272 277 268 270 270 269 271 270 269 273
275 274 274 274 275 274 274 274 274 273 273 273 272 272 272 272 271 270 269 267 270 270 270 270 269 268 265 263 262 267 277 270 268 266 267 270 273 277
273 273 273 273 273 273 272 272 271 270 270 270 269 269 266 269 268 268 268 267 268 270 269 268 269 269 270 268 262 263 269 277 275 269 268 265 267 270
273 272 272 272 271 271 270 270 270 270 269 268 265 265 265 267 266 265 265 267 267 267 268 270 272 271 270 270 265 259 266 268 274 278 277 275 268 267
270 270 270 270 270 269 269 268 266 265 266 266 267 265 265 265 266 265 265 266 266 266 267 266 268 269 269 270 267 265 264 264 269 269 269 276 277 277
Wind_Speed
10 9 8 7 5 6 6 9 9 4 7 5 4 8 7 7 8 7 10 13 17 16 15 13 11 9 8 9 8 8 7 7 8 6 6 6 6 4
7 9 9 6 7 5 5 5 4 3 7 3 5 4 10 7 5 9 5 6 5 8 9 9 9 9 8 7 7 9 7 7 6 5 6 6 8 10
8 10 10 9 7 8 7 7 5 3 5 1 3 3 2 8 7 7 6 6 6 7 6 7 9 10 10 9 7 4 4 4 5 9 13 12 12 12
10 10 11 7 10 9 8 11 9 6 4 8 3 3 2 6 8 9 7 5 6 8 10 11 10 10 6 16 15 18 18 18 18 17 15 14 13 11
10 11 11 11 10 8 9 9 8 7 5 4 4 2 3 6 6 7 8 6 7 15 15 16 17 16 17 18 19 20 20 20 18 16 16 13 12 10
10 11 11 13 12 11 11 11 10 8 6 5 4 3 3 4 4 6 4 2 3 6 11 12 12 17 18 17 19 18 18 16 15 14 14 11 10 6
10 11 11 13 14 13 8 9 10 10 8 7 4 3 3 5 9 5 4 4 2 2 6 4 6 6 8 13 15 15 15 15 14 12 11 9 6 4
9 9 9 10 11 13 13 14 15 13 10 8 6 6 4 5 5 7 5 4 3 3 4 3 4 4 5 5 14 14 13 12 12 10 9 6 4 1
7 6 5 6 10 7 10 13 12 8 6 11 12 10 6 7 6 5 4 3 4 6 5 3 2 5 4 8 14 12 12 11 9 7 6 4 2 2
6 7 6 6 7 10 9 10 9 9 6 4 6 3 4 5 4 3 5 7 7 4 2 4 2 3 4 4 13 12 9 7 6 4 4 3 1 2
5 5 4 7 12 18 12 12 10 10 16 23 22 20 18 13 6 6 4 6 3 2 1 4 3 3 2 3 5 11 9 4 4 4 5 4 4 1
5 5 9 5 16 16 13 12 11 6 7 8 7 12 12 12 14 5 5 5 4 2 3 4 5 4 4 2 3 4 2 7 7 7 7 3 2 0
4 4 5 9 12 9 13 9 7 12 10 9 8 7 7 8 7 6 6 3 4 3 4 3 3 3 3 3 2 3 3 2 3 1 3 4 5 2
7 6 8 17 19 18 13 24 23 13 8 8 8 7 6 6 7 8 9 9 8 7 7 4 4 3 4 3 3 3 2 1 2 2 1 3 4 4
10 18 24 25 25 20 22 20 13 8 9 9 8 7 5 5 6 8 10 12 13 10 5 3 5 7 3 3 4 2 3 1 2 1 1 1 1 1
14 12 15 16 16 13 10 11 8 8 8 9 9 7 6 5 6 5 8 7 9 7 9 8 7 5 5 4 4 2 3 3 1 2 2 2 2 3
11 8 8 10 10 9 9 9 8 8 10 8 8 8 7 7 6 4 4 6 7 5 5 5 8 9 7 6 4 2 2 1 1 1 2 2 3 3
12 10 9 9 10 8 9 7 8 9 8 8 8 7 7 6 6 6 6 6 7 5 4 2 2 3 3 5 6 3 1 1 1 2 1 1 2 3
12 9 10 9 7 10 8 7 8 6 7 7 7 6 7 7 7 6 5 6 6 5 3 2 2 3 3 2 3 2 3 2 1 2 2 2 3 6
10 11 9 8 9 9 7 7 7 7 6 7 7 6 6 6 6 5 4 4 5 3 4 3 3 2 4 5 3 3 5 2 2 2 3 2 5 14
10 10 8 8 8 7 7 7 8 6 7 6 5 6 4 6 5 5 6 7 6 4 5 3 2 3 3 3 4 4 4 6 2 4 3 1 3 3
9 9 8 8 7 7 7 7 7 7 7 7 5 5 5 5 5 5 5 6 4 3 2 1 4 2 3 2 1 2 3 4 7 6 5 2 3 3
8 8 7 7 7 7 7 7 7 6 6 6 6 5 5 5 5 5 5 5 4 4 3 3 3 4 3 4 3 1 2 3 2 4 4 11 14 16
Wind_Direction
202 199 204 204 198 198 193 191 177 161 178 195 155 200 192 183 199 191 203 199 209 210 212 217 217 211 204 209 221 226 229 231 233 230 236 239 256 231
193 194 204 196 190 179 182 195 170 137 170 135 200 190 198 187 177 192 171 120 185 189 186 188 189 189 191 201 208 215 209 213 201 197 224 172 134 107
188 196 198 192 186 183 179 182 166 135 141 166 170 220 175 130 110 104 87 86 70 86 158 173 179 180 192 174 148 189 171 171 127 114 108 108 105 101
192 197 198 193 190 177 179 181 178 164 138 161 141 181 138 120 121 104 96 84 80 72 85 82 78 77 88 90 99 95 84 83 83 83 84 82 79 74
192 195 200 190 193 180 181 170 165 157 147 141 151 167 115 130 95 82 82 85 86 90 85 89 92 92 90 95 98 95 96 93 91 89 84 77 71 64
194 200 198 195 196 187 187 180 172 165 160 154 138 139 129 122 137 135 123 84 107 87 74 86 97 101 104 105 100 104 102 99 99 96 91 83 73 71
195 199 200 197 198 190 182 176 172 176 177 171 152 130 139 159 171 140 113 124 84 119 103 104 114 113 109 100 101 107 110 111 108 106 100 101 105 85
190 195 198 189 191 182 182 181 182 184 185 181 180 171 167 160 144 151 118 141 161 175 111 111 109 111 108 109 123 122 120 118 116 113 107 102 99 77
173 176 176 188 189 174 94 91 67 67 192 188 185 184 165 170 138 143 149 142 155 150 118 117 123 114 122 129 133 129 126 124 119 116 127 122 101 9
165 177 174 157 139 133 108 83 64 45 35 71 127 96 102 96 127 143 136 103 84 60 80 122 139 119 129 138 148 139 134 135 125 143 146 143 207 22
80 53 159 143 140 133 120 111 91 77 69 79 82 79 73 72 94 115 127 136 118 148 129 110 141 108 114 134 137 141 143 128 202 275 222 223 270 329
62 43 22 143 152 144 135 137 124 129 113 82 61 56 53 53 45 34 140 142 120 128 190 106 139 140 150 146 144 139 153 210 230 259 273 214 263 93
71 41 7 129 130 114 134 139 128 127 106 95 87 75 62 56 46 35 33 98 115 93 155 109 135 129 92 126 108 145 207 239 206 293 45 2 325 293
94 75 69 85 93 94 91 114 118 113 107 98 90 75 74 67 61 59 56 65 60 97 119 101 114 130 125 118 142 173 198 260 141 132 345 317 323 358
96 95 90 88 87 86 102 106 102 105 108 100 96 87 79 82 87 81 80 79 72 68 67 78 111 121 115 127 139 143 125 67 69 104 292 303 285 240
97 92 92 84 78 83 77 70 77 91 102 106 104 101 103 92 84 81 89 86 81 61 43 48 68 88 93 65 92 84 90 136 360 343 316 319 331 312
99 87 85 89 88 77 73 81 81 85 93 95 100 106 99 100 85 69 69 79 92 96 75 50 62 66 65 99 78 70 108 81 299 321 24 325 321 330
83 75 70 70 81 77 87 78 81 87 90 102 107 105 102 96 92 80 78 89 95 81 80 42 58 64 49 34 75 124 57 162 269 311 286 187 281 289
82 87 78 70 77 81 78 80 81 76 91 95 101 99 97 91 98 97 92 97 87 77 45 57 66 88 70 97 320 60 149 244 279 311 248 208 244 266
77 75 78 82 73 78 85 90 84 74 74 74 72 75 79 98 94 87 80 98 101 91 75 48 60 71 124 172 186 270 288 211 180 253 285 286 259 273
59 66 66 65 73 80 76 70 71 73 71 75 71 78 62 86 80 81 84 84 91 83 75 39 340 125 113 86 33 326 300 329 349 195 243 239 280 300
68 66 62 62 66 70 70 76 75 72 78 81 74 77 67 77 85 80 71 85 74 72 79 12 19 46 64 102 217 263 306 321 323 331 345 247 189 283
54 59 57 58 61 64 68 65 65 58 63 71 77 71 74 81 78 82 82 71 70 55 37 22 12 19 7 31 38 346 323 305 303 316 303 308 305 287